GEFSCGP_500_meanwind_228.txt.gz
Wind_Speed
19 17 15 13 13 12 9 8 9 10 12 9 8 8 9 11 11 10 11 11 12 13 14 14 15 14 14 14 14 14 14 14 14 14 14 12 10 10 10 9 8 8 7 6
21 19 18 17 16 15 13 12 11 11 14 11 10 9 9 11 11 12 12 11 12 12 13 14 14 14 14 14 14 14 14 14 14 14 14 13 11 10 10 9 8 8 7 6
22 20 20 20 18 17 16 15 13 13 14 12 11 11 13 12 12 13 13 13 12 12 12 13 14 14 14 14 14 14 14 14 14 14 13 13 12 10 10 10 9 8 8 7
25 24 22 21 20 19 17 16 17 15 14 12 11 13 17 15 14 14 14 13 13 13 13 13 12 13 14 14 14 14 15 15 14 13 12 12 12 11 10 10 10 9 9 8
25 25 24 22 21 20 18 18 18 17 15 14 13 14 16 16 15 15 14 13 14 13 13 12 12 13 14 14 13 14 15 14 13 13 12 12 12 11 10 10 10 9 9 8
26 26 25 24 23 22 19 19 18 17 16 17 16 15 16 17 17 17 16 14 14 14 13 12 12 12 13 13 14 14 14 14 13 12 12 11 11 11 10 10 9 9 9 8
28 27 26 25 23 22 21 19 17 16 17 17 15 17 19 19 19 18 17 15 15 14 14 13 12 12 13 13 14 14 14 13 12 11 11 11 11 10 10 10 10 9 9 8
28 28 27 26 24 23 22 21 19 17 15 15 16 19 19 20 19 19 18 17 16 16 14 14 13 13 13 13 13 14 14 12 11 11 11 10 10 10 10 10 10 10 9 8
26 26 27 27 25 24 24 22 20 18 16 16 15 18 20 21 20 20 19 18 17 16 16 14 13 13 13 13 13 14 13 12 11 11 10 10 10 10 10 10 10 10 9 10
27 26 26 26 26 27 25 22 21 22 21 19 18 19 21 21 19 19 19 17 16 16 15 15 14 13 13 12 13 13 13 12 11 11 11 10 10 11 10 11 11 11 11 11
28 27 27 27 27 26 26 25 24 23 22 20 19 20 20 22 21 21 20 18 17 16 15 15 14 13 13 12 12 12 12 12 11 12 12 11 11 11 11 11 11 11 11 11
30 29 28 27 26 26 26 25 25 26 25 24 22 22 21 22 22 21 20 20 18 17 16 15 14 14 13 13 13 12 13 13 13 13 12 11 12 12 12 12 12 12 11 11
32 32 30 28 27 27 28 27 26 26 26 25 23 24 24 24 22 21 20 19 19 18 17 16 15 15 14 14 14 13 13 13 13 13 13 13 13 13 13 13 13 13 12 13
35 35 32 29 26 25 26 27 27 27 27 25 24 25 26 27 25 23 21 20 21 20 20 18 18 17 15 15 14 14 14 15 15 15 14 14 14 14 14 13 13 13 13 13
36 36 34 32 28 24 24 24 25 27 27 26 23 24 27 29 28 25 25 24 23 23 22 21 19 18 17 16 16 16 16 16 17 16 15 15 15 15 14 14 14 14 13 13
36 36 34 33 30 28 26 25 24 25 26 26 26 26 28 30 28 26 26 25 25 24 23 22 21 19 18 18 17 17 17 17 17 17 16 16 16 16 15 15 16 15 15 15
36 36 35 34 32 30 30 28 26 26 25 26 27 29 30 30 28 26 26 26 25 24 23 23 22 21 20 19 18 18 18 19 18 18 17 17 18 17 17 16 17 17 17 17
34 35 34 32 30 31 31 28 28 27 28 29 28 29 28 30 29 28 27 26 25 24 23 22 22 21 20 20 20 19 19 19 20 19 19 19 19 18 18 18 18 18 18 18
35 35 34 32 30 31 30 30 29 29 30 30 29 30 31 28 27 28 27 26 27 26 25 23 21 20 21 21 20 20 21 21 21 21 21 21 20 19 19 19 19 20 19 19
34 34 34 33 31 30 30 29 29 29 31 30 31 31 31 29 28 28 27 27 27 27 26 25 25 24 23 23 22 22 23 23 22 22 22 21 21 21 20 20 20 21 21 20
33 32 33 33 31 29 29 29 30 31 31 31 31 31 32 31 30 31 29 28 27 28 28 28 26 25 25 25 25 25 24 24 23 23 23 22 22 21 21 21 22 21 22 21
33 33 34 34 32 32 32 31 31 31 32 31 30 31 32 31 31 31 30 28 28 28 28 28 27 27 26 26 26 26 25 25 24 24 24 23 23 23 23 23 22 22 21 21
31 34 33 34 34 34 34 33 32 31 30 31 31 31 31 31 31 31 32 30 29 28 28 28 28 28 27 27 26 26 26 26 25 24 24 23 24 23 23 23 22 22 22 22
31 33 34 35 38 36 35 34 32 32 31 30 31 32 31 30 30 31 31 31 30 30 30 30 30 29 28 27 27 26 26 26 25 25 25 24 24 23 23 23 23 22 22 23
33 34 36 37 37 36 37 35 34 34 34 33 33 32 31 31 30 29 29 30 30 31 30 29 29 29 28 28 27 27 27 27 27 26 25 25 24 24 24 24 23 24 24 24
34 35 37 39 38 38 38 37 35 35 35 34 34 33 33 33 32 32 31 31 32 32 31 30 29 29 29 28 26 27 27 27 27 27 27 26 26 25 25 25 25 25 24 24

GEFSCGP_500_meanwind_234.txt.gz
Wind_Speed
21 19 17 14 13 11 9 9 8 6 6 7 9 11 10 10 11 12 13 14 14 15 15 14 14 15 15 15 15 15 15 14 13 12 11 12 11 10 10 9 8 6 5 5
22 21 18 17 15 14 12 11 9 9 8 9 10 12 11 12 12 12 12 13 13 14 14 14 14 13 14 14 14 14 14 14 13 11 11 10 10 10 9 9 7 6 6 5
23 21 21 19 17 16 14 13 13 12 11 10 11 12 12 12 12 11 11 12 13 14 13 13 13 13 13 13 13 14 14 14 12 10 10 9 9 9 8 7 7 6 6 5
25 24 24 22 20 18 16 15 16 15 14 13 13 14 13 13 13 13 12 13 13 13 13 13 12 12 12 12 13 14 14 13 12 10 8 8 8 8 8 7 6 6 6 5
27 26 25 24 22 20 19 18 17 16 16 16 15 16 14 14 14 13 12 12 14 14 14 14 12 11 12 12 12 13 13 12 11 10 8 7 7 8 7 7 6 6 6 5
27 27 26 25 23 22 20 20 19 18 18 18 17 18 16 14 15 14 12 13 14 14 14 13 11 11 11 11 11 12 12 12 11 10 8 7 7 7 7 7 7 6 6 6
29 28 27 26 25 24 23 22 21 21 21 20 18 20 18 14 15 14 13 13 13 14 14 13 11 11 10 10 11 11 11 11 10 10 8 7 7 7 7 6 7 7 7 7
30 29 28 27 26 25 24 24 23 22 22 22 21 21 18 16 14 13 14 14 13 14 14 13 11 11 11 10 10 10 11 11 10 9 8 7 6 6 6 6 6 7 7 7
30 28 27 27 26 26 25 25 24 23 23 24 23 21 19 16 15 14 14 14 14 14 14 13 12 11 11 10 11 10 10 10 10 9 8 7 6 6 7 7 6 7 7 7
30 29 28 27 27 27 26 25 26 25 25 25 24 22 19 18 17 16 16 15 15 16 15 13 12 12 11 11 10 10 10 10 10 10 10 8 8 8 7 8 7 7 7 8
32 31 30 29 29 28 28 28 28 27 26 26 25 23 20 19 18 18 17 16 16 15 14 12 12 11 11 11 10 10 10 10 10 10 10 9 9 8 8 8 8 7 8 8
32 32 32 31 29 28 30 29 28 28 27 27 27 25 22 21 20 18 18 17 16 15 14 13 13 13 12 12 11 11 11 11 11 10 10 10 10 9 9 8 8 8 8 8
34 33 32 32 32 30 31 30 29 29 29 30 29 26 24 23 23 22 21 19 17 18 17 15 14 14 13 12 12 11 11 12 11 11 11 11 10 10 9 9 9 9 8 9
35 35 34 33 32 31 31 31 30 30 32 31 30 28 26 25 24 24 23 21 20 19 18 17 17 15 14 13 13 13 12 12 12 12 11 11 10 10 10 10 10 10 10 10
36 36 35 34 33 31 31 31 31 30 30 30 29 29 27 26 26 26 24 22 22 21 21 20 18 17 16 16 16 15 14 13 12 12 11 12 11 12 12 12 11 11 12 11
38 37 36 35 33 33 32 31 31 30 29 29 29 29 29 28 29 28 26 25 24 22 23 22 20 20 18 18 17 15 15 12 11 12 12 13 13 13 13 13 13 13 13 13
39 38 37 35 34 33 34 32 31 30 29 29 29 29 30 30 30 30 28 27 25 23 23 23 22 21 21 20 18 17 14 13 13 13 13 14 14 14 14 13 14 14 14 14
38 38 38 36 35 36 34 32 32 31 30 29 28 27 28 30 30 30 30 29 28 26 24 23 22 21 22 21 20 18 17 16 14 13 14 14 15 15 15 15 15 15 15 15
36 37 37 37 37 38 35 32 33 33 32 30 30 29 29 29 30 29 30 30 29 26 25 24 23 23 23 22 21 20 19 18 17 16 16 16 16 16 16 16 16 17 17 17
36 36 38 38 38 39 36 33 33 33 34 33 32 32 31 30 30 30 30 30 29 27 26 26 26 25 25 24 23 22 20 19 18 17 17 17 18 18 18 18 18 18 18 18
37 36 38 38 39 38 36 35 34 35 34 32 32 32 33 32 31 30 30 29 29 27 26 26 27 27 25 24 24 23 22 21 20 20 19 19 19 19 19 19 19 18 18 18
36 38 37 38 39 38 35 35 36 35 34 33 32 32 32 32 31 30 30 29 29 28 27 26 26 25 25 25 24 23 22 21 21 21 21 21 21 21 21 21 20 20 20 20
36 37 37 37 37 36 36 35 35 35 34 34 32 32 31 31 30 30 30 29 29 28 27 27 26 25 25 24 24 23 23 23 22 22 23 23 22 22 22 22 22 22 21 21
36 36 37 37 37 37 37 37 36 35 35 34 32 32 31 29 29 29 30 30 29 29 29 28 27 26 26 25 24 24 23 23 23 24 24 24 23 23 23 23 23 23 23 23
36 36 37 38 38 37 37 36 35 34 34 35 34 33 33 33 32 32 31 30 30 29 29 28 27 26 26 25 25 24 24 25 25 25 24 24 24 24 25 25 24 23 23 22
35 36 38 38 37 37 36 35 34 34 34 34 35 34 32 33 32 32 32 31 31 30 29 28 27 26 25 25 25 26 26 26 25 25 25 25 26 26 27 26 25 24 24 24

GEFSCGP_500_meanwind_240.txt.gz
Wind_Speed
21 20 18 16 15 13 12 10 8 6 4 2 1 3 5 6 8 9 10 12 13 15 15 16 16 17 16 17 17 16 15 13 12 11 10 10 9 9 8 8 8 6 5 5
23 21 19 19 17 16 15 13 11 10 8 6 4 3 3 5 6 7 8 10 11 13 13 14 15 16 16 16 16 16 15 14 13 11 10 10 9 9 8 7 7 6 5 4
24 23 22 21 20 18 17 15 13 12 12 11 9 6 5 5 5 5 7 8 10 11 12 13 14 15 15 15 15 15 15 14 13 11 11 10 9 9 8 7 6 6 6 6
26 25 25 23 22 20 19 17 16 15 15 15 13 11 8 7 6 6 6 7 9 10 11 11 13 14 14 14 15 14 15 14 13 11 10 10 9 9 9 8 6 6 6 6
27 27 26 25 23 22 21 20 20 19 18 17 16 14 11 9 8 7 7 7 8 9 10 10 11 13 13 14 14 13 14 14 13 12 11 10 9 8 8 7 6 6 6 6
29 28 27 27 26 24 23 23 22 22 21 20 17 16 12 10 10 9 8 8 8 9 10 10 11 11 12 13 13 13 13 14 13 12 11 10 9 8 8 7 6 6 6 6
30 28 27 27 27 26 25 24 24 24 23 21 19 18 14 13 12 10 9 9 8 8 9 9 9 11 12 11 11 12 13 13 13 12 11 10 9 8 8 8 7 6 6 7
31 30 29 28 27 27 26 26 26 25 23 22 20 19 16 14 13 12 11 10 9 9 10 9 9 10 10 10 10 11 12 12 12 11 11 10 9 9 9 8 6 6 7 8
31 30 29 28 28 28 27 28 26 26 25 24 23 20 18 16 15 14 13 12 11 11 10 10 10 10 9 10 10 10 10 11 11 10 11 11 10 10 10 9 7 7 8 8
31 30 30 29 29 28 28 27 28 28 27 26 25 22 19 17 17 16 15 14 13 11 10 11 12 11 10 11 11 10 10 10 10 10 11 12 11 10 9 8 8 8 8 9
32 32 31 31 30 28 28 29 29 29 29 28 27 23 20 19 19 18 17 16 14 13 12 11 11 11 11 11 12 12 11 10 11 11 12 12 13 12 10 10 9 9 9 9
34 34 33 32 31 30 30 30 29 29 30 29 28 24 21 20 20 20 19 18 17 15 14 13 12 12 12 12 12 13 13 12 12 13 13 13 13 14 12 12 10 9 9 10
35 36 35 34 33 32 32 31 30 30 30 30 29 26 23 22 21 21 20 20 18 17 16 15 14 15 14 14 14 13 13 13 13 13 14 14 14 15 14 13 10 9 10 11
37 37 37 36 34 33 33 32 32 31 31 30 29 27 25 24 23 22 21 20 20 19 18 17 16 16 15 15 16 14 14 13 14 14 15 15 15 15 15 14 13 11 11 11
37 37 37 36 35 34 34 33 32 32 32 31 28 27 25 24 24 23 22 21 20 20 19 19 18 17 17 17 17 16 15 14 14 15 15 15 15 15 15 15 13 11 11 12
38 38 37 36 36 36 35 34 33 32 32 31 29 27 26 26 26 24 24 23 22 21 21 20 20 20 19 18 17 17 16 16 16 16 16 16 16 16 16 16 14 12 12 12
38 37 37 36 35 36 38 35 34 33 32 31 29 26 26 26 26 25 24 23 23 22 22 22 21 20 19 19 18 18 17 17 18 18 18 17 17 17 16 16 15 13 13 14
38 38 37 37 36 38 36 35 34 34 32 31 29 27 26 26 26 25 24 24 23 23 23 23 21 21 21 20 20 19 19 19 19 19 18 17 18 17 17 16 15 15 15 15
37 38 38 37 37 37 35 34 34 34 32 31 30 29 28 27 27 25 25 25 25 24 23 22 21 21 22 22 21 21 21 20 20 20 20 19 19 19 18 17 16 16 16 17
38 39 39 39 38 37 34 33 33 33 33 31 30 29 28 27 27 25 24 25 24 24 24 23 21 21 22 21 22 22 21 21 20 21 21 21 20 19 19 18 18 19 19 19
38 38 39 39 38 36 33 33 33 34 32 30 30 29 28 28 27 25 25 25 25 24 23 23 23 22 22 21 21 21 21 22 21 21 21 21 20 20 19 19 19 20 20 20
38 38 39 39 38 37 34 33 33 33 32 31 30 29 29 29 28 27 26 26 25 24 24 24 24 24 23 22 22 22 22 22 22 22 21 22 22 21 22 22 21 21 21 22
38 39 39 39 38 37 35 34 34 34 33 32 31 30 30 30 30 29 28 27 27 26 26 26 26 26 25 25 23 23 23 23 24 23 24 24 23 23 22 22 22 22 22 23
37 37 38 38 38 37 35 34 34 35 34 32 32 31 31 31 31 31 30 30 30 29 28 27 27 27 27 26 25 25 24 23 23 24 24 25 25 24 24 23 22 22 23 23
36 37 38 38 37 37 37 35 34 34 34 33 33 32 32 32 32 32 31 32 32 32 30 30 30 28 27 26 25 25 25 25 25 25 25 25 25 25 24 24 24 24 24 25
35 36 36 37 37 37 36 35 35 35 34 34 33 33 32 32 32 33 32 32 32 32 32 31 30 29 28 27 26 26 26 26 25 25 24 24 25 25 25 25 26 26 27 27

GEFSCGP_500_meanwind_246.txt.gz
Wind_Speed
17 16 15 14 12 11 10 9 8 7 5 3 2 0 2 3 5 7 9 10 11 12 13 13 14 15 15 15 15 14 13 12 11 10 9 9 8 8 8 7 6 5 5 4
19 19 17 16 14 13 12 11 10 9 7 5 3 2 2 3 4 5 7 8 9 10 10 12 13 13 14 14 14 14 13 12 11 10 9 9 9 8 8 7 7 6 5 4
21 21 19 17 16 14 14 13 13 12 9 8 6 5 4 4 3 4 5 6 7 8 9 10 11 12 13 14 14 14 13 12 11 10 9 9 8 8 8 7 7 6 6 5
24 22 20 19 18 17 16 16 14 13 11 10 8 8 8 6 6 6 5 5 6 7 8 9 10 11 11 12 13 13 13 12 11 11 10 9 9 8 8 7 6 6 6 5
25 24 22 21 20 18 18 17 16 14 13 12 12 10 10 9 8 8 7 6 6 7 7 9 10 10 11 12 12 12 12 11 11 10 10 9 9 8 8 7 6 6 6 6
27 25 24 23 22 21 20 18 17 16 15 15 14 12 12 12 10 9 8 7 7 7 8 9 9 10 11 11 12 11 11 11 10 10 10 9 9 9 7 7 6 6 6 6
28 27 26 24 24 22 21 19 18 17 17 16 15 14 14 13 12 11 9 9 8 8 8 8 9 10 10 11 11 11 11 10 10 9 10 10 9 9 8 7 7 7 7 7
28 28 27 25 25 24 22 21 20 18 17 17 17 15 15 15 14 13 11 11 10 10 9 9 9 10 10 11 11 11 10 9 9 9 9 10 9 9 8 8 8 8 8 8
29 29 28 27 26 25 24 23 21 20 19 18 17 17 16 16 15 14 13 13 12 11 10 10 11 11 11 11 11 10 9 9 9 9 9 9 9 10 9 9 9 9 9 8
31 30 30 29 28 27 26 25 24 22 21 19 18 17 16 16 15 15 15 15 14 12 12 12 12 11 11 11 11 11 10 9 9 9 9 9 9 9 9 10 10 9 9 9
31 31 31 30 30 29 28 27 26 25 24 20 19 18 18 17 16 16 15 15 15 14 13 13 13 13 12 12 11 11 11 11 10 10 10 10 10 10 10 10 10 9 9 9
32 31 31 31 31 30 29 28 27 27 26 24 21 20 20 18 17 18 17 16 15 15 15 15 15 14 14 13 13 12 12 12 11 11 11 11 11 11 10 11 11 10 10 10
34 34 32 32 32 32 32 31 29 28 27 26 24 22 22 20 18 18 18 18 17 16 16 16 16 16 15 14 14 13 13 13 12 12 12 12 12 11 11 11 11 10 10 10
36 36 35 33 32 33 33 32 31 29 28 27 26 24 24 22 20 19 19 19 19 18 18 17 17 17 16 16 15 15 14 14 14 14 14 14 14 13 12 12 12 11 10 11
37 37 37 36 34 33 34 33 31 31 29 28 26 26 25 23 22 21 20 20 20 19 19 18 18 18 18 17 17 16 16 16 16 15 15 15 15 14 14 13 13 12 11 11
38 38 38 38 37 35 35 34 33 32 31 29 28 27 26 25 24 23 21 21 20 20 20 19 19 19 19 19 18 18 18 18 17 17 16 16 16 15 15 15 14 13 13 12
38 38 38 37 37 38 38 36 34 33 32 31 29 28 27 26 25 24 23 23 22 22 21 21 21 20 20 20 20 20 19 19 19 19 18 17 17 17 17 15 14 14 14 13
38 37 37 36 38 39 38 36 35 34 33 31 30 29 28 27 27 26 26 25 24 23 23 23 23 22 22 22 22 21 21 21 21 20 19 18 18 18 17 16 16 15 15 16
37 37 37 37 37 37 38 37 35 34 34 33 31 30 29 28 28 27 26 26 25 24 24 24 24 24 23 23 22 22 22 23 23 22 21 20 20 20 19 18 18 18 18 18
37 37 38 38 37 37 37 36 35 34 35 33 32 31 30 29 28 27 27 27 26 25 25 24 24 24 24 23 24 24 23 23 23 22 22 23 23 22 21 21 21 20 20 20
38 39 39 39 38 37 37 36 35 35 34 32 32 31 30 30 29 28 28 28 27 26 25 24 24 25 25 24 24 23 23 23 23 23 23 23 24 23 22 22 22 21 22 22
38 39 40 39 38 37 37 36 35 35 34 33 32 31 31 30 29 29 29 29 27 25 25 24 24 25 25 25 24 23 23 23 24 24 24 24 24 23 22 23 23 23 23 24
39 38 39 39 38 37 37 36 35 34 34 33 33 31 31 30 30 29 29 28 27 27 26 26 26 26 26 25 24 24 24 24 24 25 25 24 23 23 24 24 24 24 24 24
37 38 38 38 38 38 37 36 36 34 33 33 33 32 31 31 30 30 29 29 29 29 28 27 27 28 27 27 26 25 25 25 25 26 26 25 25 24 25 25 25 25 25 26
35 36 36 36 37 37 37 36 36 35 34 33 33 32 32 32 31 30 30 30 30 30 30 29 29 28 28 28 28 27 26 26 27 27 27 26 26 26 27 27 27 27 27 28
34 35 36 36 36 36 35 35 35 35 34 33 33 33 33 33 32 31 31 31 31 31 31 31 31 30 29 30 29 29 28 28 29 28 28 29 28 28 29 29 29 29 30 29

GEFSCGP_500_meanwind_252.txt.gz
Wind_Speed
13 14 12 9 8 7 7 7 6 6 7 5 4 5 7 9 10 10 10 11 12 13 14 14 15 16 17 17 16 15 15 14 13 13 13 12 11 10 10 10 10 9 9 8
15 15 12 12 11 10 9 8 8 8 7 5 5 6 7 10 11 11 10 10 11 12 13 13 14 15 16 16 16 15 14 14 13 13 13 12 11 10 10 10 10 9 9 8
17 15 15 15 13 12 11 10 11 10 8 5 6 7 9 9 10 11 11 10 11 11 12 13 13 14 15 15 16 15 14 13 13 13 12 12 11 11 10 10 9 9 9 9
19 18 18 17 15 14 13 12 12 11 10 7 7 10 11 11 10 10 11 10 10 11 11 12 13 13 13 14 14 15 15 14 13 13 12 11 11 10 10 10 9 9 9 8
20 20 20 19 17 16 15 13 13 11 11 10 9 11 12 13 12 11 11 11 10 10 11 12 11 12 13 14 14 14 14 13 13 12 12 12 11 11 10 9 9 9 9 9
23 22 21 20 20 19 16 14 12 12 12 13 12 12 13 14 13 12 12 11 11 10 10 12 11 11 12 13 13 13 13 13 12 12 12 12 12 11 10 9 9 9 9 9
24 23 22 21 20 19 17 14 13 13 14 14 12 13 16 17 15 14 13 12 11 11 11 11 12 11 11 12 12 12 12 12 12 12 12 11 12 12 10 10 9 9 9 9
23 23 22 22 20 19 18 17 16 14 12 12 12 14 16 17 16 16 14 13 12 12 11 11 12 11 11 12 12 12 12 12 12 12 13 12 12 12 11 11 10 9 9 9
23 23 24 24 22 20 20 20 17 16 15 14 13 15 17 18 17 16 15 15 15 14 13 12 11 12 12 12 12 13 12 12 12 12 13 13 12 12 11 11 10 10 9 8
26 25 24 24 23 23 22 20 19 19 18 17 15 16 20 20 19 17 17 17 16 16 14 13 12 13 14 13 13 13 12 12 13 13 13 13 12 12 11 11 11 10 10 9
27 27 25 25 26 23 23 22 21 21 21 18 16 17 18 21 21 19 18 18 17 17 16 15 14 15 15 15 14 14 13 13 13 13 13 13 13 12 12 12 11 11 11 10
29 27 26 25 25 24 23 24 23 23 22 20 18 17 19 21 22 21 20 20 19 18 17 17 17 17 16 16 16 15 15 15 14 14 14 14 13 13 13 12 12 12 12 11
32 30 28 25 25 25 26 26 25 24 23 22 20 20 21 22 20 21 22 22 21 20 20 19 17 17 17 17 17 16 16 15 15 15 14 14 13 13 13 13 13 13 13 12
33 33 31 28 27 26 26 25 25 25 25 24 23 22 23 24 24 25 25 23 23 22 21 21 19 18 18 18 18 17 17 16 16 15 15 14 13 14 14 14 13 13 13 13
36 35 34 32 30 28 27 26 27 27 27 27 25 24 24 26 28 28 27 26 25 24 22 21 21 20 19 19 19 18 18 17 17 17 16 16 15 15 15 14 14 14 14 14
38 37 36 34 32 30 29 28 28 28 28 28 27 26 25 28 30 30 28 28 26 25 24 22 21 21 20 20 20 19 19 18 18 18 18 17 17 17 16 15 15 15 15 15
39 38 38 37 33 33 33 31 30 29 28 28 29 28 27 30 32 31 29 28 28 27 26 24 23 22 22 21 20 20 19 19 19 19 19 19 19 18 18 17 17 17 16 17
38 38 38 37 34 36 35 31 31 29 28 28 29 29 29 30 31 31 32 30 29 28 26 26 25 25 24 22 22 21 21 21 21 21 20 20 20 19 18 18 18 18 19 19
38 38 37 36 35 36 34 32 32 32 31 30 30 30 30 29 29 31 31 31 30 29 27 26 26 26 25 24 23 22 22 23 23 22 22 22 21 20 20 20 20 20 21 20
38 38 37 36 36 36 34 33 33 34 35 33 33 33 32 31 31 30 31 31 30 29 28 28 28 27 25 25 25 24 24 23 23 23 23 23 22 22 22 22 22 22 22 21
37 37 38 38 37 36 33 33 34 35 36 36 35 35 35 34 33 32 32 32 30 30 30 30 29 28 27 27 27 26 25 25 25 24 24 24 24 24 24 24 24 23 23 23
35 36 37 37 37 37 35 34 35 36 36 37 37 36 37 35 34 33 33 33 31 30 30 30 29 29 28 28 27 27 26 26 26 26 25 25 25 25 25 25 24 24 25 24
35 36 36 37 38 36 35 37 37 38 38 37 36 36 36 36 36 35 35 33 32 30 30 30 30 30 29 29 28 28 27 27 27 27 27 26 26 27 26 26 26 25 25 25
36 36 37 38 39 38 38 38 39 39 39 38 37 37 37 37 36 36 36 35 33 31 30 31 31 31 31 30 29 28 28 28 28 28 28 28 28 29 29 28 28 27 27 27
35 36 36 37 38 39 39 39 39 39 38 37 36 36 37 36 36 36 37 37 35 33 32 32 32 31 31 30 30 29 29 29 29 29 29 29 29 30 30 29 29 29 29 29
35 36 36 37 38 40 40 40 41 40 39 38 37 36 36 35 35 35 36 35 34 33 33 33 33 32 31 31 31 31 30 30 30 29 29 29 30 30 30 30 30 30 30 30

GEFSCGP_500_meanwind_258.txt.gz
Wind_Speed
17 15 13 12 10 8 7 5 4 1 2 2 3 5 7 9 11 12 13 14 13 14 15 15 15 16 16 17 17 17 16 15 15 14 14 13 12 10 9 9 8 8 7 6
18 16 14 13 12 10 9 8 6 5 4 2 3 4 5 8 10 11 12 12 13 13 13 13 14 15 15 16 16 16 15 14 14 13 13 12 11 10 9 8 8 8 7 6
18 16 16 15 13 12 12 11 10 9 7 6 5 5 5 6 7 9 11 11 11 12 12 13 13 13 14 14 14 14 14 14 13 12 12 12 12 10 9 8 8 8 6 6
20 19 19 17 16 14 13 13 12 12 11 9 8 7 5 5 5 8 10 10 10 10 11 12 13 12 13 13 13 13 13 13 13 13 12 12 11 10 9 8 8 9 7 6
20 20 20 19 17 15 13 13 13 13 12 10 11 10 8 8 7 7 8 10 11 10 10 11 12 12 12 13 13 13 12 13 12 13 12 11 11 10 10 9 9 8 6 6
21 21 22 20 18 17 15 14 14 14 13 12 11 12 10 8 8 8 9 9 10 10 9 10 11 12 11 12 12 12 12 12 12 12 12 10 10 10 11 11 10 9 6 6
23 23 22 22 21 20 18 17 16 16 15 13 12 13 11 9 9 9 9 10 10 9 9 10 11 12 11 11 11 11 11 11 12 11 11 11 11 11 10 11 10 9 7 6
25 24 23 23 22 21 20 20 19 17 16 14 13 14 13 12 10 10 10 11 10 9 10 11 12 12 12 12 11 11 11 11 11 11 11 10 10 10 10 10 9 9 8 7
26 25 24 24 23 23 22 21 20 19 17 16 15 14 14 13 12 12 12 12 12 11 11 12 12 12 12 12 12 12 11 11 10 10 10 10 10 10 9 9 9 9 9 7
27 26 25 24 25 24 23 23 23 22 20 18 16 14 14 13 13 13 13 13 14 13 12 12 12 12 11 11 12 11 12 11 10 10 10 10 10 10 10 9 9 9 8 9
29 28 26 26 27 26 25 25 25 24 23 22 20 17 15 14 14 14 14 14 14 13 12 12 13 13 13 13 13 12 12 12 11 11 10 10 10 10 10 10 8 8 8 9
30 30 28 28 28 28 28 27 26 26 25 24 23 21 18 17 16 15 15 15 14 13 13 13 13 13 13 14 14 13 12 12 12 11 11 10 10 10 11 10 9 9 9 9
33 32 30 30 30 30 30 29 30 29 27 27 25 22 19 19 18 17 17 16 16 15 14 14 15 15 15 15 15 14 13 12 12 12 12 11 11 11 11 11 11 10 10 10
35 35 34 33 31 30 30 30 30 30 29 28 26 24 21 19 19 18 18 18 19 18 17 16 16 16 16 16 16 15 14 14 13 13 13 12 12 12 12 12 11 11 10 11
36 36 36 34 32 31 31 30 30 31 30 30 26 25 23 21 20 20 20 21 21 21 20 19 19 19 18 18 17 17 16 16 16 15 14 14 13 13 13 13 12 12 12 12
37 36 36 35 34 34 33 31 31 31 31 31 29 27 25 23 22 23 23 23 23 23 22 21 22 21 20 20 19 18 18 17 17 17 16 15 15 15 14 14 14 14 14 14
37 36 36 36 36 35 35 33 32 32 31 31 31 29 27 26 25 25 25 25 25 24 24 23 23 23 23 22 21 20 19 18 18 18 18 18 18 17 16 16 16 15 15 15
39 37 37 37 37 38 36 35 34 34 33 32 32 31 30 30 29 28 28 28 27 26 27 26 25 25 23 23 23 22 20 20 19 19 19 19 19 18 18 18 17 16 16 17
40 39 39 39 39 39 37 36 35 35 35 34 33 32 31 30 30 30 30 29 29 28 28 28 27 26 25 24 24 23 22 22 21 21 21 20 20 20 20 19 18 18 18 18
41 41 41 40 40 41 38 37 36 37 37 35 34 33 32 32 32 31 30 30 30 30 29 29 28 27 26 25 25 25 25 25 24 23 22 22 21 21 21 20 20 20 20 20
42 41 41 40 41 41 38 37 37 39 38 36 36 35 34 34 34 32 32 32 31 30 30 30 30 30 29 28 28 27 27 26 25 25 24 24 23 23 22 22 21 21 20 20
40 40 41 40 41 40 39 37 38 38 38 38 37 36 36 35 34 34 34 33 33 32 32 31 31 32 31 31 30 28 27 26 26 26 26 25 25 23 23 22 22 22 22 22
40 40 40 40 40 39 39 38 38 39 39 38 38 38 38 37 37 37 36 36 35 35 35 33 33 32 32 32 31 29 28 28 27 27 27 26 26 26 25 25 24 24 25 25
38 39 39 40 40 39 39 39 39 39 39 39 38 39 38 38 38 38 38 38 37 37 37 36 34 33 33 33 33 32 31 30 29 28 28 28 27 27 27 27 26 26 26 27
37 37 38 39 40 39 39 39 39 39 39 39 39 38 38 38 38 38 39 38 38 38 38 37 36 35 34 34 34 34 33 32 31 29 29 29 29 28 29 29 28 28 28 28
36 37 38 38 39 39 38 38 38 38 39 39 39 40 39 38 37 39 40 39 39 39 39 38 37 36 35 34 34 34 33 33 32 31 31 31 31 31 30 30 30 30 30 29

GEFSCGP_500_meanwind_264.txt.gz
Wind_Speed
17 15 13 11 11 9 7 5 3 3 1 0 2 4 6 8 9 10 11 12 13 13 14 16 16 16 16 16 16 15 15 14 14 14 13 13 12 10 10 9 8 6 6 5
19 17 15 14 13 11 9 7 5 4 4 3 2 2 4 6 7 8 9 10 11 11 13 14 15 15 16 16 15 15 14 14 14 14 14 13 12 11 11 10 8 7 6 6
21 19 18 16 15 13 11 10 9 7 6 5 4 2 3 4 6 7 8 9 9 9 10 12 13 14 14 15 15 14 14 14 14 13 13 13 12 12 11 10 9 8 7 6
23 22 20 18 16 15 14 13 11 10 9 7 6 4 3 5 5 7 8 8 8 8 9 10 11 12 13 13 14 14 13 13 14 13 12 12 12 11 10 9 8 8 8 7
25 24 22 20 18 16 15 15 14 12 11 10 9 7 5 5 6 6 7 7 7 7 7 8 9 10 11 11 12 13 13 13 13 13 12 12 11 11 11 8 8 8 7 7
27 26 25 23 21 20 18 17 17 16 14 13 11 9 7 6 7 7 7 7 7 6 6 7 7 8 10 10 11 11 11 11 12 12 12 12 12 12 11 9 8 7 6 6
29 28 27 25 24 22 21 19 19 18 16 14 13 12 9 8 8 8 8 8 7 6 6 7 7 8 9 9 10 10 10 10 11 11 11 11 11 11 11 10 9 8 7 6
31 29 28 27 26 24 23 21 20 20 18 16 15 14 11 10 9 9 10 9 8 7 7 7 8 8 8 9 9 9 10 10 10 11 11 11 11 11 11 10 9 8 7 6
31 30 29 28 27 26 25 24 22 22 20 19 18 15 13 12 10 10 10 10 9 8 8 8 8 8 8 9 9 9 10 10 10 10 11 11 11 11 11 10 9 8 7 6
33 31 30 29 29 29 27 25 24 23 23 22 20 18 16 14 13 12 11 10 9 9 9 9 8 8 9 9 9 10 11 11 11 11 11 11 11 11 10 9 9 8 7 7
34 33 31 31 31 29 29 28 27 25 25 24 23 20 17 16 15 14 13 12 11 11 10 9 9 10 10 9 10 11 11 11 12 12 12 11 11 11 10 9 9 8 8 8
35 34 33 32 32 31 31 30 29 28 27 26 25 21 19 19 18 17 16 15 13 13 12 11 10 10 10 10 11 12 13 12 13 13 13 12 12 11 10 10 10 10 10 10
36 36 35 34 34 33 33 32 31 30 30 29 27 23 21 21 20 19 18 17 16 15 14 13 12 11 11 11 12 13 14 14 13 13 13 13 12 12 11 11 12 12 12 11
37 37 37 35 34 33 33 33 32 32 32 31 28 25 23 22 21 20 20 18 17 17 16 15 15 14 14 13 13 14 15 15 14 14 14 14 13 13 13 13 13 13 13 13
38 38 37 36 35 34 34 33 34 34 33 32 30 28 25 24 23 21 21 20 18 18 17 16 16 16 16 16 16 16 16 16 17 16 15 15 15 14 15 14 14 14 14 14
39 39 38 38 37 36 36 35 34 34 34 33 31 30 27 26 26 24 23 21 20 19 19 19 19 19 19 19 18 18 18 18 18 17 17 17 16 16 16 16 16 16 17 17
40 40 39 39 38 37 38 36 35 35 35 34 33 31 30 29 28 27 26 25 23 23 22 21 22 22 22 21 20 19 19 19 19 19 19 19 18 18 17 17 17 18 18 18
40 40 40 39 39 40 39 37 36 36 36 35 34 33 31 30 29 29 28 28 27 25 24 23 23 24 24 23 23 22 21 21 22 22 21 21 20 19 19 19 19 20 20 20
41 40 40 40 41 41 41 39 38 37 36 35 35 33 32 32 31 30 29 29 29 28 26 25 25 25 25 25 25 24 23 24 24 24 24 23 22 22 22 21 21 21 22 22
42 41 41 41 42 41 40 39 39 39 39 37 36 35 33 32 32 31 31 31 30 29 29 28 27 27 27 27 27 26 26 26 26 25 26 25 25 24 24 24 24 23 24 24
41 41 41 40 41 41 40 40 40 41 39 37 37 35 34 33 33 33 33 32 32 31 30 29 29 29 28 28 28 28 28 29 28 27 27 27 27 27 27 26 26 26 26 25
41 41 41 40 41 41 39 38 39 39 39 38 38 36 35 34 34 34 34 33 33 32 32 31 31 31 31 30 30 30 29 30 30 29 28 29 29 29 29 29 29 28 28 27
42 41 41 42 41 39 39 38 38 38 38 38 38 37 38 37 36 35 35 34 34 34 34 33 33 33 33 33 32 32 31 31 31 31 31 30 30 30 30 30 30 30 29 28
42 41 41 41 41 40 39 39 39 38 37 37 37 38 38 38 38 37 37 36 36 35 35 35 35 35 35 35 34 34 34 33 33 33 33 32 32 33 33 32 32 31 30 30
40 41 41 40 39 39 38 38 38 38 38 38 37 37 38 38 38 37 36 37 37 37 36 36 36 36 36 36 36 35 35 34 34 34 33 33 33 34 33 32 32 32 31 31
38 39 40 40 39 38 37 37 37 38 39 38 37 37 38 38 38 37 38 38 37 37 36 36 36 37 37 37 36 36 36 36 35 34 35 35 35 34 33 33 33 33 33 32

GEFSCGP_500_meanwind_270.txt.gz
Wind_Speed
14 12 10 10 10 8 7 5 4 2 1 2 3 4 6 7 8 9 10 10 11 11 12 12 13 12 12 12 12 12 12 12 11 10 9 8 7 7 6 5 5 4 4 3
16 15 13 12 11 9 7 6 5 4 2 1 0 2 4 4 5 6 7 8 9 9 10 10 11 11 11 11 11 11 11 11 11 11 10 9 7 7 7 6 6 5 4 4
18 17 16 14 12 11 9 8 7 6 4 3 2 3 4 4 4 5 6 6 7 7 8 8 9 10 10 10 10 10 11 11 11 11 10 9 8 7 7 6 6 5 5 4
21 20 18 16 14 12 11 10 9 7 6 5 3 3 6 4 4 5 5 5 5 5 6 6 7 8 9 10 10 10 10 10 10 11 11 10 9 8 7 6 6 5 5 5
23 22 20 18 17 15 14 13 11 9 8 7 6 4 7 6 4 5 5 5 5 5 5 5 6 7 8 9 9 9 9 9 10 10 11 11 10 10 9 7 7 6 6 5
26 24 23 21 19 18 15 14 12 11 9 9 9 6 7 7 6 6 6 6 5 5 5 5 6 6 7 8 8 8 8 8 9 10 10 10 9 9 9 8 7 7 6 6
28 26 26 24 22 20 17 14 12 11 11 11 11 8 9 9 7 7 7 6 6 6 5 5 6 6 6 7 7 7 7 7 8 8 9 10 10 9 9 9 8 7 6 5
28 28 28 26 24 22 20 17 16 14 13 12 13 11 11 10 9 8 7 7 7 7 6 6 6 6 6 7 7 7 7 7 8 8 8 9 9 10 9 9 8 7 7 6
28 28 29 28 26 25 22 21 19 17 16 14 14 14 13 12 11 10 9 9 9 8 8 7 7 7 7 7 8 8 8 8 9 9 9 9 9 9 9 9 9 8 7 7
31 30 31 29 29 28 26 23 21 20 19 17 16 15 14 14 13 12 11 10 10 9 9 9 9 9 8 8 8 9 9 9 9 10 10 10 10 10 10 10 10 9 9 8
33 32 32 32 31 29 29 27 25 23 22 19 17 17 16 15 14 13 13 12 12 12 11 11 11 11 10 10 9 9 10 10 10 10 11 11 11 11 10 10 10 10 10 9
35 34 33 33 33 32 31 29 27 26 25 23 20 19 19 16 15 15 15 14 15 14 14 13 13 13 12 11 11 11 11 11 11 12 11 12 12 12 11 11 11 11 11 11
37 37 35 34 34 34 33 31 29 27 26 25 23 21 21 19 18 17 17 17 16 16 16 15 15 15 14 13 13 13 13 13 13 13 12 13 13 13 13 13 13 13 12 12
37 38 36 33 31 32 33 32 31 29 28 27 25 23 23 22 21 20 19 19 18 18 17 17 17 16 16 15 15 15 15 15 15 14 14 14 14 14 15 14 14 14 14 13
38 38 38 37 35 34 34 33 33 32 30 28 27 26 25 24 23 22 22 21 21 20 20 19 19 18 18 17 17 17 17 17 17 17 16 16 16 16 16 15 15 15 15 15
38 38 38 38 37 36 36 35 34 34 33 31 30 29 27 26 26 25 24 23 23 22 22 22 22 21 20 20 19 19 19 19 19 18 18 18 18 17 17 16 16 16 16 16
38 38 38 38 38 37 39 37 36 36 35 33 32 31 30 29 28 27 26 25 25 25 24 24 24 23 23 22 22 21 21 21 21 21 20 20 19 19 19 18 18 18 18 18
38 38 38 37 37 39 38 36 37 37 36 35 34 33 32 30 29 29 28 28 27 27 27 26 27 27 26 25 24 24 23 23 23 23 23 22 22 21 21 21 20 20 20 19
39 39 39 38 38 39 39 39 38 38 38 36 35 34 33 32 31 30 30 29 29 29 29 29 29 28 28 27 26 25 25 25 25 25 25 24 23 23 23 22 22 22 22 21
39 39 40 40 39 39 38 39 38 38 39 38 37 36 35 33 33 32 31 31 30 30 30 29 29 29 28 28 27 27 27 27 27 27 26 26 26 25 25 25 24 23 23 22
39 39 40 40 40 41 39 39 38 38 38 38 38 36 35 35 34 33 32 32 31 30 30 30 29 29 29 29 29 29 29 29 28 28 28 28 28 27 27 27 27 26 25 25
39 39 40 40 40 40 40 39 39 38 38 38 38 37 36 36 35 35 34 33 32 31 31 31 31 31 31 31 31 30 30 30 30 29 29 29 29 29 29 28 28 28 28 28
39 39 39 40 40 40 41 40 38 37 38 38 38 38 37 36 35 35 35 35 34 34 33 34 33 33 32 32 32 32 32 32 31 31 31 31 31 31 31 30 30 30 30 30
39 40 40 40 40 40 40 39 38 37 38 39 38 37 38 37 37 37 37 36 36 36 36 35 35 34 34 33 33 33 33 33 32 32 32 32 32 33 33 32 32 32 31 30
39 40 40 40 40 40 40 39 38 37 38 39 39 38 38 39 39 38 38 38 38 37 37 36 35 35 35 34 34 34 34 33 32 33 33 33 34 34 33 33 33 33 32 32
39 39 39 40 40 40 40 39 38 37 37 38 39 39 38 38 38 37 37 37 38 38 37 36 36 36 36 36 35 35 35 34 33 33 34 34 34 34 34 34 34 34 34 33

GEFSCGP_500_meanwind_276.txt.gz
Wind_Speed
11 9 6 6 7 5 4 4 4 3 3 3 3 3 6 8 9 10 10 11 11 11 12 12 12 13 13 13 13 14 14 13 13 12 10 10 9 9 8 7 7 7 6 5
12 10 8 10 10 8 6 6 6 5 4 3 4 5 5 6 7 8 9 9 10 11 11 11 11 12 12 12 12 13 14 14 14 13 12 11 10 10 9 8 8 7 7 6
15 10 10 11 11 9 8 7 8 6 4 2 5 7 7 6 7 7 8 9 9 10 11 10 10 10 11 11 11 12 12 13 13 14 14 13 12 11 10 9 8 8 7 7
16 14 14 14 13 11 9 8 9 7 5 5 7 9 9 8 8 8 8 9 9 9 10 10 9 9 10 10 10 11 11 12 13 13 14 14 13 12 11 10 9 8 8 7
19 17 16 17 14 12 12 11 11 8 7 7 9 11 10 11 10 8 9 9 9 9 9 9 9 8 9 9 9 10 10 11 12 12 13 13 13 12 12 11 10 9 9 8
21 18 18 18 15 15 14 12 10 7 7 9 10 12 12 10 10 10 10 9 8 8 8 8 8 8 8 9 9 9 9 10 11 12 12 13 12 12 12 12 11 9 9 8
23 21 20 19 18 18 16 13 11 10 9 10 10 11 14 13 12 13 11 10 9 8 8 8 8 8 8 9 9 9 9 10 10 11 12 12 12 12 12 12 11 10 10 9
23 24 22 22 21 19 18 16 14 12 11 11 10 10 14 14 13 14 12 11 10 9 9 8 8 9 9 9 9 9 9 10 10 11 11 12 12 12 12 12 11 11 10 10
23 22 21 22 21 21 20 19 16 14 13 12 11 11 13 15 15 14 13 12 11 10 10 10 10 10 9 9 9 9 9 10 10 11 12 11 11 11 12 12 12 11 11 10
25 24 22 23 24 24 23 20 18 18 17 16 14 13 14 17 17 15 14 13 13 12 11 11 11 10 10 10 10 10 10 10 11 11 12 12 12 12 12 12 13 12 12 12
29 27 24 24 26 24 24 23 22 21 20 18 16 16 15 19 17 16 15 14 14 14 12 12 12 12 11 11 11 11 11 12 12 12 12 13 13 13 13 13 13 13 13 13
32 31 29 27 26 24 24 24 23 24 23 22 20 18 17 19 17 17 18 17 16 16 15 13 13 13 13 12 12 13 13 13 13 13 14 14 14 13 13 13 13 13 13 13
33 33 31 29 28 28 28 26 25 25 24 23 22 21 20 19 19 19 19 18 17 18 17 16 16 15 15 15 16 15 15 15 15 15 15 15 15 15 14 14 14 14 14 13
35 36 34 32 30 27 27 26 26 26 26 25 24 23 22 22 22 22 20 20 20 21 20 19 19 18 17 18 17 18 18 17 17 17 17 17 17 17 16 15 15 15 15 14
37 37 37 34 31 28 28 28 28 29 28 28 27 26 26 23 24 23 22 22 21 22 21 22 21 20 20 20 20 20 20 19 19 19 18 18 18 18 17 17 17 16 16 16
38 38 37 37 34 31 31 30 28 29 29 29 28 27 27 27 27 26 25 24 23 23 23 23 23 23 23 22 21 21 21 21 21 21 20 20 20 20 19 20 19 18 18 18
38 38 37 37 36 34 35 33 31 30 30 30 30 30 28 30 32 30 29 27 26 25 26 26 25 24 24 24 23 23 24 24 23 23 22 22 22 22 21 21 21 21 21 21
38 38 38 36 35 38 37 33 32 31 31 31 31 31 31 31 31 31 30 29 27 27 28 28 28 27 26 26 26 25 26 26 25 25 24 24 23 23 23 23 23 23 23 23
39 39 38 37 37 38 37 34 33 32 33 34 33 32 33 34 33 33 30 30 29 28 29 29 30 29 29 28 28 28 28 28 27 26 26 26 26 25 26 26 25 26 26 25
39 40 40 39 38 38 36 35 33 33 36 37 37 36 36 36 36 36 34 33 33 31 31 31 32 32 31 31 30 30 30 30 29 28 27 28 29 29 28 28 28 28 28 28
38 40 41 40 40 39 36 35 35 37 39 38 37 38 39 39 39 39 38 37 36 35 34 34 34 34 34 33 32 31 31 31 30 30 30 30 31 31 31 30 30 29 29 29
37 38 40 41 40 40 39 38 38 39 39 39 38 39 40 40 40 41 41 40 38 37 37 36 36 35 35 35 34 33 32 32 31 31 31 31 31 31 31 31 31 31 31 31
37 39 39 39 40 40 41 42 41 41 40 40 40 41 41 41 41 42 41 40 39 39 38 38 37 37 36 36 35 34 33 33 33 32 32 32 32 32 32 32 32 32 32 32
37 38 41 41 41 41 41 41 43 43 42 42 41 42 42 41 41 41 41 40 39 38 38 38 38 37 36 36 36 35 34 34 34 34 33 33 33 33 33 33 33 33 32 33
36 39 41 41 41 43 44 44 44 45 45 44 43 41 40 40 39 39 39 39 39 39 39 39 38 37 37 38 38 37 36 35 34 34 34 34 34 34 34 34 33 33 34 34
37 39 40 42 42 44 44 44 43 44 44 44 43 42 40 40 39 39 39 39 39 39 39 40 40 39 38 39 38 38 37 36 35 35 35 35 35 35 35 34 34 33 33 33

GEFSCGP_500_meanwind_282.txt.gz
Wind_Speed
17 15 12 11 9 7 6 5 4 2 3 4 5 6 8 10 10 11 12 13 14 14 14 14 13 13 13 13 14 15 15 14 13 13 13 12 11 10 10 9 8 7 6 5
18 16 14 12 11 9 9 7 5 3 1 2 4 7 8 8 9 10 10 11 13 13 13 13 12 12 12 12 12 13 14 14 14 12 12 12 11 10 9 8 7 6 5 5
17 16 15 12 10 9 10 8 6 5 4 4 5 6 7 8 7 8 9 9 11 12 12 12 12 11 11 11 11 12 13 13 13 13 13 12 11 10 9 8 7 6 5 5
19 17 16 14 11 9 10 9 7 7 7 7 7 7 7 8 7 7 8 8 10 10 10 11 10 9 9 9 10 10 11 11 11 11 12 12 11 10 9 8 6 5 5 5
20 18 17 15 13 11 10 10 9 9 9 9 9 9 8 8 7 6 6 7 7 8 9 9 9 9 8 9 9 10 10 10 10 11 11 11 11 11 10 8 7 6 5 5
23 21 20 18 15 14 13 13 13 11 11 11 10 10 10 9 7 6 5 5 5 6 7 7 8 7 7 8 8 9 9 9 10 10 11 11 11 11 10 10 9 7 6 6
24 23 22 20 18 17 16 15 15 14 12 11 12 13 11 9 8 5 5 5 4 5 6 6 6 6 6 6 7 8 8 9 9 9 9 10 10 10 10 9 9 8 8 7
25 24 22 21 19 18 18 17 17 15 13 12 13 14 12 10 10 8 6 6 5 5 5 5 6 6 6 6 7 8 8 9 9 9 9 9 10 10 10 9 9 8 8 8
25 25 23 22 21 20 19 19 18 16 15 14 14 14 12 12 11 10 7 6 6 6 5 5 6 6 6 6 7 8 8 9 9 9 9 9 9 9 9 10 9 9 9 8
25 25 25 24 24 23 20 19 19 20 19 18 17 16 14 14 14 12 9 9 7 7 6 6 6 6 7 7 8 9 10 9 8 8 9 9 9 9 10 10 10 9 9 9
27 27 27 27 27 25 23 22 23 23 22 21 21 19 17 14 14 12 10 9 8 8 8 7 7 8 8 8 9 9 9 9 9 9 9 9 10 10 10 11 11 10 10 10
29 28 29 29 27 26 24 24 24 25 24 23 23 22 19 16 15 13 12 11 10 10 10 9 9 9 10 11 11 10 10 10 10 11 11 11 11 11 11 11 11 11 11 11
30 31 31 30 29 29 28 26 25 26 27 27 26 23 21 19 17 16 15 14 14 13 12 12 12 12 12 12 11 11 12 12 12 12 12 12 12 12 12 13 12 12 11 11
33 34 34 33 32 32 31 30 28 28 29 29 28 25 23 22 20 19 17 16 16 15 14 14 14 14 14 13 13 13 14 14 14 14 14 14 14 14 14 14 14 13 13 13
35 36 36 35 35 35 34 33 31 30 31 32 30 28 26 24 23 21 20 19 18 16 17 16 16 15 16 16 15 15 15 15 16 16 16 17 16 16 16 16 16 16 16 15
38 38 38 38 36 37 37 35 34 33 33 33 32 29 28 27 26 24 23 22 21 19 19 18 18 18 18 17 17 17 17 18 18 18 19 19 19 19 19 18 18 18 18 18
39 39 39 39 38 38 38 36 36 36 35 35 34 32 30 29 29 28 27 26 24 23 22 21 21 21 20 20 20 20 19 20 20 20 21 21 21 21 20 20 20 20 19 20
40 40 40 40 39 41 39 37 36 36 36 36 35 34 32 30 29 30 29 28 27 26 24 24 24 24 23 23 23 22 22 22 22 23 23 23 23 23 23 22 22 22 22 22
40 40 40 41 41 40 39 38 37 37 38 38 36 35 34 32 31 30 29 28 27 27 26 26 27 26 26 26 25 25 25 25 25 26 25 25 25 25 25 25 25 25 25 24
41 41 41 42 42 42 40 38 38 38 39 38 38 37 37 36 34 33 31 30 30 30 29 29 29 29 29 29 28 28 28 28 29 29 29 28 28 27 27 27 27 26 26 26
40 41 41 42 43 44 41 40 40 41 41 38 38 38 38 38 37 35 34 33 32 32 31 31 31 31 31 31 31 31 31 31 32 32 32 31 30 29 29 28 28 27 27 27
38 40 41 42 44 45 43 42 42 42 41 40 39 39 39 39 39 37 36 35 35 35 34 34 33 33 33 34 34 33 33 33 33 33 33 33 32 31 30 30 29 28 28 27
39 41 41 42 43 43 43 43 43 43 43 42 41 40 41 40 40 40 39 39 39 38 38 37 36 35 35 35 35 34 34 34 34 34 35 34 33 31 30 30 30 30 29 29
38 41 42 41 41 41 42 42 42 42 43 43 43 42 42 41 40 41 41 41 40 40 39 39 38 36 36 36 36 36 35 35 35 36 36 35 34 32 31 31 31 30 30 30
39 40 40 41 41 41 41 42 43 43 42 42 43 44 43 42 42 42 42 41 41 40 40 39 38 37 36 37 38 38 38 38 37 36 36 36 36 35 33 32 32 32 31 30
38 39 40 41 41 42 42 42 43 43 43 43 43 44 44 45 44 43 43 42 42 41 41 40 39 38 37 38 38 38 38 37 36 36 36 36 37 36 35 34 33 33 32 31

GEFSCGP_500_meanwind_288.txt.gz
Wind_Speed
16 14 12 11 10 8 7 6 4 3 2 3 4 6 6 7 7 8 10 11 12 12 12 12 12 12 12 11 11 11 11 11 11 10 9 8 7 6 6 6 5 4 3 3
17 15 13 13 11 10 8 8 6 4 3 1 1 3 5 6 6 7 8 9 10 10 10 10 11 11 11 11 11 11 11 11 10 10 10 9 7 6 6 5 5 4 4 4
19 16 16 14 13 11 10 9 9 7 5 4 2 1 3 5 5 6 7 7 9 9 9 9 9 9 9 10 10 10 10 10 10 9 9 8 7 6 5 5 5 4 4 4
21 20 19 17 15 13 11 11 11 9 9 7 6 4 2 3 4 5 5 5 6 7 7 8 8 7 7 8 9 9 10 10 9 9 8 8 7 6 5 5 5 5 5 4
23 21 21 19 17 16 15 14 13 12 11 10 9 7 4 3 4 5 5 4 5 5 5 6 6 6 6 7 7 8 8 9 10 10 9 9 8 7 6 5 5 5 5 5
24 23 22 20 18 18 17 16 15 14 14 12 11 10 7 5 4 5 5 5 5 4 5 5 5 5 5 6 6 6 7 8 9 9 10 9 9 9 8 6 5 5 5 6
27 25 23 21 20 20 19 17 16 16 16 14 13 12 8 6 5 5 5 6 6 5 4 4 4 5 5 5 5 5 6 7 8 9 9 9 9 9 8 8 7 6 6 6
28 27 25 23 22 21 20 19 18 18 16 15 15 14 10 8 7 7 7 7 6 6 5 4 5 5 5 5 5 6 7 7 8 9 10 9 9 10 9 8 8 8 8 8
29 27 27 26 25 24 23 22 21 21 19 19 18 16 14 11 10 9 9 8 8 8 7 6 6 6 5 6 6 7 7 7 8 9 9 10 10 10 9 9 9 8 8 9
29 28 28 28 27 27 26 24 23 23 22 22 21 19 17 14 12 11 10 9 9 9 9 9 8 7 7 7 7 8 8 8 9 9 10 10 10 10 10 10 10 9 10 9
29 29 29 30 29 28 27 26 25 24 24 24 23 21 18 16 14 13 12 11 11 11 12 11 10 9 9 9 8 9 9 9 10 10 10 11 11 11 10 11 11 11 11 10
30 30 30 31 30 30 29 28 26 26 26 26 26 23 19 18 17 15 14 13 13 13 13 12 12 11 11 11 11 11 11 11 11 11 11 11 11 11 12 12 12 12 12 12
31 32 31 31 32 32 32 31 29 29 28 28 28 25 22 21 20 18 16 16 15 15 14 13 13 13 13 13 13 13 13 13 13 12 12 12 12 12 13 14 14 13 14 14
31 33 32 32 32 32 33 33 32 31 32 30 29 27 25 23 22 20 19 18 17 17 15 15 15 15 14 14 14 14 14 14 14 14 14 14 14 14 15 15 15 15 16 16
33 33 32 32 32 34 34 34 34 34 34 33 30 29 27 25 24 22 21 21 20 20 19 18 18 18 17 16 16 16 16 15 15 16 16 16 17 17 17 17 17 18 18 18
36 35 34 33 33 35 36 35 35 35 35 34 33 32 29 28 27 26 24 23 23 23 22 21 22 21 20 19 19 18 18 18 18 18 19 19 19 19 19 19 19 20 20 20
38 38 37 36 35 36 37 36 36 37 37 36 35 33 31 30 29 28 28 26 25 25 25 25 25 24 23 22 22 21 21 21 21 21 21 21 21 21 21 22 22 22 22 22
39 40 40 39 38 40 38 36 37 37 37 36 36 34 33 31 30 30 30 29 28 28 27 26 26 27 26 25 24 24 24 24 24 23 24 24 24 24 24 24 24 24 24 24
40 41 42 43 42 41 40 38 37 37 37 36 37 35 34 34 33 32 30 30 29 29 29 29 29 29 28 27 27 26 26 26 26 26 26 27 27 27 28 27 27 27 26 26
40 41 43 44 44 44 42 40 39 38 39 37 37 37 36 35 35 34 32 32 32 31 31 31 31 31 30 29 29 29 29 28 28 28 29 30 30 30 30 30 29 28 28 27
38 39 42 43 44 44 43 42 41 40 40 38 38 38 37 37 36 35 35 35 34 33 33 33 33 32 31 31 31 31 31 31 31 32 32 33 32 32 31 32 30 29 29 29
36 37 39 42 44 44 43 43 43 42 41 40 39 39 39 39 38 37 37 37 37 37 36 35 35 35 34 33 33 33 33 33 34 35 35 34 34 33 33 33 32 31 30 30
35 37 38 40 42 43 43 44 44 43 43 42 42 41 41 41 39 39 38 38 38 38 38 38 37 37 37 36 36 36 35 36 36 36 36 36 35 34 34 33 32 31 31 32
35 36 38 39 40 42 42 42 42 42 42 43 43 43 43 42 42 41 41 40 40 39 39 39 39 39 39 39 39 38 37 38 38 39 38 37 36 36 35 33 33 32 33 33
37 37 38 38 39 40 41 41 41 41 42 42 43 43 43 43 42 42 42 41 40 40 39 40 41 41 41 41 40 39 38 38 38 38 38 37 38 36 35 33 33 34 34 35
37 37 38 38 38 39 40 41 43 42 41 41 41 41 41 42 42 41 41 41 40 40 40 41 42 42 42 41 40 39 38 38 38 38 37 37 37 37 36 35 35 36 35 35

GEFSCGP_500_meanwind_294.txt.gz
Wind_Speed
13 12 10 9 8 7 6 4 2 1 1 2 3 5 6 7 7 8 8 9 9 10 10 10 10 10 9 9 8 8 8 7 7 6 6 5 5 4 4 3 2 2 2 2
14 14 12 11 9 8 7 5 4 2 1 1 2 3 5 6 6 6 7 8 8 9 9 9 9 8 9 9 8 8 8 7 6 6 6 5 4 4 4 3 2 2 3 3
16 15 14 13 12 10 8 7 6 5 3 2 2 4 4 4 5 5 6 6 7 8 8 8 7 7 7 8 8 6 6 6 6 5 4 4 4 4 4 4 4 4 4 4
19 18 16 14 13 12 10 10 8 7 5 4 3 3 4 4 4 4 5 5 6 6 7 7 7 6 6 6 7 7 6 5 5 4 4 4 4 4 5 5 5 5 4 4
20 20 18 16 15 14 13 12 11 9 8 6 6 4 6 4 3 4 4 5 5 5 6 6 6 5 5 5 5 6 7 6 5 5 5 4 5 5 5 6 6 5 5 5
22 21 20 19 17 17 15 14 13 11 10 9 8 6 6 6 5 4 4 4 4 4 4 5 5 5 5 4 5 5 5 6 6 6 6 6 6 6 6 7 6 6 5 5
24 24 23 21 20 19 17 14 12 11 10 11 11 8 7 7 6 5 5 5 5 5 4 5 5 6 5 5 5 5 5 5 6 6 7 7 7 8 8 8 8 7 7 6
24 24 24 23 23 21 19 17 14 12 11 12 14 11 9 8 7 7 7 6 6 6 6 5 6 6 6 5 5 5 6 6 7 7 7 7 7 8 9 9 9 8 8 8
25 25 24 24 23 23 22 20 17 16 15 14 14 14 11 10 9 9 8 8 8 8 8 7 7 7 7 7 6 7 7 7 7 8 8 8 8 9 9 9 9 9 9 9
26 25 25 25 24 24 23 21 20 18 16 15 15 14 14 13 11 11 11 10 10 10 9 9 9 9 9 8 8 8 8 9 9 9 9 9 10 10 10 10 10 10 9 10
26 26 26 25 25 24 24 23 21 20 19 16 15 15 15 15 14 13 13 13 12 12 11 11 11 11 10 10 10 10 10 10 10 11 11 11 11 11 11 11 11 11 11 11
27 26 26 26 27 26 25 24 23 22 22 21 18 17 18 17 16 16 16 16 15 14 13 12 12 12 11 11 11 11 11 11 11 12 12 12 12 12 12 12 13 13 13 13
29 29 27 26 28 28 28 27 25 24 24 22 20 19 20 19 19 19 19 19 18 16 15 14 14 14 13 13 13 13 13 13 13 13 13 13 13 14 14 14 14 15 14 15
32 32 31 28 27 28 28 28 27 26 25 23 22 22 22 21 20 20 20 20 20 19 18 17 16 16 16 16 15 15 14 14 14 14 15 15 15 16 16 17 17 16 16 16
32 33 32 31 30 30 30 29 28 28 27 26 24 24 24 23 22 22 22 21 21 21 20 19 19 18 18 18 18 17 16 17 16 17 17 17 17 17 18 18 18 18 18 18
33 33 33 32 32 31 32 31 30 30 29 28 28 28 26 25 25 24 23 23 23 24 24 22 21 20 20 20 20 20 19 19 19 19 20 19 19 19 20 20 20 20 20 21
34 34 33 33 32 33 34 33 32 31 31 30 30 30 29 27 26 25 25 24 24 24 25 25 24 23 22 22 22 22 22 22 22 22 22 22 22 22 22 23 23 23 23 23
35 35 35 34 34 36 34 34 33 33 32 32 32 32 31 29 28 27 27 26 25 25 25 26 25 25 25 25 25 25 25 25 25 24 24 24 24 24 24 25 25 25 25 25
37 36 37 37 37 36 36 35 33 33 33 33 33 33 32 31 30 30 29 28 27 27 27 28 28 28 28 28 28 28 27 28 28 27 26 25 25 26 26 27 27 27 28 28
37 38 38 39 39 38 37 37 34 33 34 34 33 33 33 32 32 31 31 30 30 29 29 30 31 31 30 29 30 30 30 30 30 28 28 27 28 28 29 29 29 29 29 30
37 38 38 39 39 39 40 39 36 36 36 35 34 34 34 35 34 34 32 32 32 32 32 32 32 33 33 32 32 32 32 31 31 31 30 30 30 30 31 31 31 31 31 31
35 37 38 38 39 39 40 40 39 39 38 37 37 36 36 36 36 36 35 35 35 35 35 36 36 36 35 35 35 35 34 34 34 34 33 32 32 33 33 33 33 33 33 32
35 36 37 39 39 39 39 40 40 40 40 40 39 38 38 38 37 37 37 37 37 38 38 38 38 38 38 37 37 36 36 36 36 36 35 35 35 35 35 35 35 34 33 33
34 34 36 37 37 37 37 38 38 39 39 40 41 40 40 40 39 39 39 38 38 39 40 39 39 39 39 38 38 38 38 38 38 38 38 37 37 36 36 36 36 35 35 35
33 33 34 35 36 36 36 36 37 38 38 39 40 41 40 39 39 39 39 39 39 39 39 40 39 39 39 40 40 39 39 39 39 39 39 39 38 38 38 37 37 37 37 36
31 32 33 33 34 35 35 35 36 37 38 39 39 39 40 40 40 39 39 38 39 39 39 40 40 41 41 42 41 41 41 41 41 40 40 40 39 39 38 38 37 37 37 37

GEFSCGP_500_meanwind_300.txt.gz
Wind_Speed
10 8 5 4 4 3 4 3 1 1 2 2 4 6 7 9 10 10 10 10 11 11 11 10 11 10 10 8 7 7 7 7 7 7 6 6 5 5 5 5 5 5 5 6
10 8 6 6 6 5 5 3 3 3 3 2 3 5 7 8 9 9 9 9 10 10 11 10 10 10 9 9 7 6 6 6 6 6 6 5 5 5 6 6 6 6 5 6
11 9 8 8 7 6 6 6 5 5 5 4 4 5 5 7 9 8 8 9 9 9 10 10 9 9 9 8 8 7 6 6 6 5 5 5 5 6 6 6 6 6 6 6
13 12 11 10 9 9 9 7 6 6 6 5 5 8 5 6 8 8 8 7 8 8 8 8 8 8 8 8 8 8 7 6 6 5 6 6 5 5 6 7 6 6 7 7
14 12 12 12 12 12 10 9 8 7 7 6 6 10 8 6 8 8 7 7 7 8 8 8 8 8 7 7 7 8 8 7 7 6 6 6 6 6 7 7 7 7 7 7
16 14 14 15 14 13 11 9 7 7 8 9 8 9 7 9 8 8 7 7 7 7 7 8 8 7 7 7 7 8 8 9 8 8 8 8 8 7 8 8 8 8 8 8
16 15 16 16 15 14 12 10 10 10 11 10 8 11 10 11 9 10 9 7 7 8 7 7 8 8 7 7 7 8 8 9 9 9 9 9 9 10 9 9 9 9 9 9
16 16 16 16 16 15 14 13 13 12 12 10 10 12 10 13 13 12 10 8 8 9 8 8 8 9 9 8 8 9 9 9 10 10 10 10 10 10 10 10 10 10 10 11
18 17 18 18 18 17 15 15 13 14 13 13 12 13 13 15 13 11 10 9 10 10 10 9 9 9 10 10 10 10 10 10 10 10 11 11 11 11 11 10 11 11 11 12
22 21 20 20 19 19 18 15 14 15 15 16 14 14 15 15 14 14 13 13 13 12 11 11 11 11 11 11 11 11 11 11 11 11 12 12 12 11 11 11 12 12 12 12
23 21 20 21 20 18 18 17 17 18 16 15 15 15 15 14 15 17 16 16 14 14 13 13 13 13 13 13 12 13 12 12 12 12 12 13 13 12 12 12 13 13 13 13
26 23 22 21 20 20 20 20 19 19 19 18 16 15 15 14 17 18 18 19 17 16 15 15 15 14 14 14 14 14 14 14 14 14 14 14 14 14 13 14 14 15 15 15
27 27 24 22 20 21 21 21 22 21 20 19 17 15 16 15 17 19 19 20 19 17 17 17 16 16 16 16 16 15 16 16 16 16 16 16 16 15 15 16 16 16 16 17
30 30 27 25 22 21 21 21 21 22 22 20 19 19 20 20 20 19 18 20 21 20 19 18 18 18 18 18 18 18 18 18 18 18 18 18 17 17 17 17 18 18 18 18
30 31 31 30 27 24 24 23 23 24 24 22 22 22 23 23 23 22 22 22 23 22 22 21 21 21 21 20 20 20 20 20 20 20 20 19 19 19 19 19 19 19 19 20
31 32 32 32 30 29 28 26 25 25 24 24 25 25 25 27 26 24 24 25 25 25 23 23 24 23 23 23 22 21 21 22 22 22 22 22 21 21 21 21 20 20 20 21
32 32 32 31 30 31 32 30 28 26 25 26 26 27 27 28 29 28 27 27 27 27 26 26 25 25 25 25 24 24 23 23 23 24 23 23 22 23 23 22 22 22 22 23
33 33 33 31 31 33 33 31 30 30 31 30 29 30 30 30 30 30 30 29 29 28 28 28 27 27 27 27 27 27 26 26 25 26 25 24 24 24 24 24 24 25 25 25
33 33 34 33 33 33 33 32 30 30 32 32 32 34 34 33 32 32 31 31 31 31 31 30 30 29 29 29 29 29 29 29 29 28 28 28 27 27 27 27 27 27 27 27
32 33 33 33 34 33 33 31 30 32 33 32 33 35 35 34 34 34 33 32 32 32 32 32 32 31 31 31 31 31 32 32 32 31 30 30 30 30 30 30 30 29 29 30
31 33 33 33 34 34 32 31 32 34 35 34 34 34 36 36 35 36 35 34 34 34 35 35 35 34 34 33 34 34 34 34 33 33 32 32 32 32 32 33 33 32 33 33
31 32 33 33 33 33 33 32 32 35 37 37 37 37 37 38 37 38 37 37 36 36 36 36 36 36 35 35 36 35 35 35 34 34 34 35 34 34 35 36 35 35 35 35
33 33 34 34 34 34 34 34 35 36 37 38 38 38 38 38 39 40 40 39 38 38 38 38 37 37 36 36 36 36 36 35 35 35 35 36 36 37 37 37 37 37 36 35
33 34 35 36 36 36 37 37 37 38 39 40 40 39 39 40 39 40 41 40 40 39 39 38 38 38 38 38 38 38 37 36 36 36 37 37 37 37 38 37 37 37 36 36
34 35 35 36 37 38 38 38 39 40 40 41 41 41 40 40 41 41 41 41 40 38 39 39 39 39 39 39 39 38 37 37 37 37 38 39 39 38 38 39 38 37 37 37
34 35 36 36 37 39 39 39 39 40 40 41 41 42 41 41 41 41 41 41 41 40 39 39 40 40 39 39 39 39 39 39 39 39 39 39 38 38 38 38 38 37 37 38

GEFSCGP_500_meanwind_306.txt.gz
Wind_Speed
13 12 10 8 7 7 4 2 3 2 2 3 5 6 8 10 11 12 13 13 13 13 13 12 11 11 11 9 8 8 7 7 7 7 6 6 5 5 5 5 4 4 4 4
14 13 11 9 7 7 4 2 1 1 2 2 4 5 5 7 8 10 10 12 12 11 12 12 11 11 10 9 8 7 6 6 6 7 6 6 6 5 5 6 5 5 5 5
14 12 12 11 9 6 4 3 3 3 3 3 4 5 4 4 5 6 8 10 10 10 11 11 10 10 9 9 9 8 7 7 6 5 5 5 5 5 5 5 6 5 5 5
16 14 13 12 10 6 5 4 5 5 5 4 4 5 5 3 3 4 6 7 7 8 8 9 9 9 9 8 8 8 8 7 6 5 5 4 4 5 5 6 6 5 5 5
17 14 13 12 10 8 7 6 6 6 6 6 6 6 4 4 3 2 4 5 5 6 6 6 7 7 7 7 7 7 7 7 7 7 6 5 5 5 6 5 5 5 5 5
17 16 14 12 10 9 9 9 9 9 9 9 6 7 5 5 4 3 4 4 5 5 5 5 5 5 6 6 6 6 6 6 6 7 7 6 6 6 6 6 6 6 6 6
18 17 14 13 12 12 13 12 12 10 10 9 8 7 6 5 4 4 4 5 5 5 5 4 4 4 5 5 6 6 6 6 6 7 7 6 6 6 6 7 7 7 7 7
19 17 15 15 15 14 14 13 13 11 10 10 10 8 7 7 5 4 5 6 7 6 5 5 5 4 5 5 5 6 7 7 7 7 7 7 7 7 7 7 7 7 8 9
20 18 16 16 16 15 15 14 13 13 12 12 11 9 8 9 8 7 7 6 6 6 5 6 5 5 5 5 5 6 7 8 8 8 8 7 7 8 8 8 8 8 9 9
21 20 17 17 18 18 17 16 16 15 13 13 11 10 10 8 9 9 7 6 6 6 6 6 6 6 7 7 6 7 8 8 9 9 9 9 8 8 9 9 9 10 10 10
22 22 20 20 21 20 19 18 18 17 16 15 14 13 11 11 11 11 10 9 9 8 8 7 7 7 8 9 9 9 9 10 10 11 11 11 10 10 10 11 11 11 12 11
23 24 23 23 22 21 21 20 20 20 19 19 18 16 14 12 11 11 12 11 10 10 10 10 9 10 10 10 10 11 12 12 12 13 13 14 13 12 13 13 13 13 13 13
25 25 24 24 24 25 24 23 23 23 22 21 21 19 16 16 16 15 15 14 13 12 13 13 12 11 11 11 12 13 14 14 14 15 15 16 16 15 15 15 15 15 15 15
27 27 26 26 26 26 26 26 25 25 25 24 23 22 20 19 19 18 18 17 15 15 15 14 14 14 14 13 14 15 16 16 16 17 17 18 18 17 17 17 16 15 15 16
29 29 29 27 27 28 28 28 27 27 26 27 26 24 23 23 21 21 21 20 18 17 17 17 17 17 16 16 16 17 17 18 18 19 19 19 19 19 18 18 17 16 17 17
30 31 30 29 29 29 29 29 29 29 29 29 28 27 26 26 24 24 24 24 22 20 20 20 20 20 19 18 18 19 19 19 20 20 20 20 20 20 19 19 19 19 19 20
30 31 31 31 30 30 31 30 31 31 30 30 31 29 28 28 28 27 26 25 24 23 23 23 23 22 22 22 22 21 21 21 21 22 21 22 22 23 22 22 22 23 23 23
31 32 32 32 32 34 32 31 31 33 32 31 31 31 31 30 29 28 27 27 26 26 25 24 24 25 25 25 25 24 24 24 24 25 25 26 25 25 24 24 24 25 25 26
30 31 31 32 32 33 31 31 32 33 34 33 33 32 32 32 31 30 30 29 28 27 27 26 26 27 27 27 27 27 27 27 27 27 27 27 27 27 27 27 27 27 28 29
29 30 31 32 32 33 31 31 32 33 34 33 33 33 33 33 32 31 31 30 29 29 29 29 29 30 30 30 30 30 30 30 30 29 29 29 29 30 29 29 29 29 30 30
29 30 31 32 33 33 32 32 32 34 33 33 33 33 33 33 33 33 32 32 32 32 31 31 32 32 32 32 32 33 33 34 33 32 32 31 31 32 32 31 31 31 31 31
30 30 32 33 33 33 33 33 33 33 33 33 33 33 33 34 34 34 34 34 34 35 35 34 35 34 35 35 35 35 36 36 36 35 34 33 33 33 33 33 33 33 32 31
30 30 31 33 34 33 34 34 34 34 33 32 33 33 34 35 36 36 36 36 36 37 38 38 38 38 39 39 38 37 37 36 36 36 36 35 35 35 35 35 34 34 33 33
32 31 32 33 34 34 35 36 35 35 34 34 34 34 35 35 36 36 37 37 38 39 39 39 40 40 40 39 38 38 37 37 36 36 37 37 36 36 36 35 35 35 34 33
32 32 33 34 35 35 35 36 37 37 36 35 35 35 36 36 37 37 37 38 40 40 40 40 40 40 40 39 39 38 37 38 37 36 37 37 37 37 36 36 36 36 35 35
33 33 33 33 34 34 34 35 36 36 34 34 35 36 36 37 37 37 38 39 39 40 40 41 41 41 41 40 40 39 39 38 38 37 36 36 37 37 37 36 36 36 36 36